| time (UTC) | temp F | wind direction | speed knots | gust knots | rain 1hr in | rain 24hr in | rain mn in | humidity % | barometer mb |
| 20260507070056 | 46 | 249 | 2.6 | 7.0 | 0.00 | 0.33 | 0.00 | 93 | 1007.8 |
| 20260507065550 | 46 | 281 | 0.9 | 7.8 | 0.00 | 0.33 | 0.00 | 94 | 1007.8 |
| 20260507065049 | 46 | 315 | 0.9 | 7.8 | 0.00 | 0.33 | 0.00 | 94 | 1007.8 |
| 20260507064549 | 46 | 278 | 1.7 | 7.0 | 0.00 | 0.33 | 0.00 | 93 | 1007.6 |
| 20260507064052 | 46 | 249 | 2.6 | 7.0 | 0.00 | 0.33 | 0.00 | 94 | 1007.8 |
| 20260507063550 | 46 | 271 | 1.7 | 7.0 | 0.00 | 0.33 | 0.00 | 94 | 1007.6 |
| 20260507063051 | 46 | 252 | 0.9 | 4.3 | 0.00 | 0.33 | 0.00 | 94 | 1007.6 |
| 20260507062550 | 46 | 267 | 0.9 | 4.3 | 0.00 | 0.33 | 0.00 | 94 | 1007.4 |
| 20260507062050 | 46 | 0 | 1.7 | 6.1 | 0.00 | 0.33 | 0.00 | 94 | 1007.7 |
| 20260507061552 | 46 | 333 | 1.7 | 6.1 | 0.00 | 0.33 | 0.00 | 94 | 1007.8 |
| 20260507061050 | 47 | 287 | 0.9 | 3.5 | 0.00 | 0.33 | 0.00 | 94 | 1007.8 |
| 20260507060549 | 47 | 0 | 0.9 | 6.1 | 0.00 | 0.33 | 0.00 | 94 | 1007.5 |
| 20260507060057 | 47 | 326 | 0.9 | 6.1 | 0.00 | 0.33 | 0.00 | 94 | 1007.7 |
| 20260507055550 | 47 | 0 | 1.7 | 6.1 | 0.00 | 0.33 | 0.00 | 94 | 1007.9 |
| 20260507055050 | 47 | 335 | 0.9 | 5.2 | 0.00 | 0.33 | 0.00 | 94 | 1007.8 |
| 20260507054551 | 47 | 335 | 1.7 | 4.3 | 0.00 | 0.33 | 0.00 | 94 | 1007.9 |
| 20260507054050 | 47 | 283 | 0.9 | 7.0 | 0.00 | 0.33 | 0.00 | 94 | 1007.8 |
| 20260507053550 | 47 | 282 | 1.7 | 7.0 | 0.00 | 0.33 | 0.00 | 94 | 1008.1 |
| 20260507053051 | 48 | 280 | 2.6 | 7.0 | 0.00 | 0.33 | 0.00 | 94 | 1008.3 |
| 20260507052553 | 48 | 288 | 1.7 | 7.0 | 0.00 | 0.33 | 0.00 | 94 | 1008.5 |
| 20260507052050 | 48 | 218 | 2.6 | 7.0 | 0.00 | 0.33 | 0.00 | 94 | 1008.3 |
| 20260507051553 | 48 | 306 | 1.7 | 7.0 | 0.00 | 0.33 | 0.00 | 94 | 1008.3 |
| 20260507051052 | 48 | 247 | 1.7 | 6.1 | 0.00 | 0.33 | 0.00 | 95 | 1008.3 |
| 20260507050552 | 48 | 237 | 1.7 | 5.2 | 0.00 | 0.33 | 0.00 | 95 | 1008.3 |
| 20260507050057 | 48 | 317 | 1.7 | 4.3 | 0.00 | 0.33 | 0.00 | 95 | 1008.2 |
| 20260507045553 | 48 | 326 | 0.0 | 3.5 | 0.00 | 0.33 | 0.00 | 95 | 1008.1 |
| 20260507045049 | 48 | 0 | 0.0 | 7.0 | 0.00 | 0.33 | 0.00 | 95 | 1008.1 |
| 20260507044551 | 49 | 0 | 1.7 | 7.0 | 0.00 | 0.33 | 0.00 | 94 | 1008.0 |
| 20260507044050 | 49 | 236 | 0.9 | 7.0 | 0.00 | 0.33 | 0.00 | 94 | 1008.2 |
| 20260507043550 | 49 | 0 | 2.6 | 7.0 | 0.00 | 0.33 | 0.00 | 94 | 1007.9 |
| 20260507043051 | 49 | 347 | 1.7 | 8.7 | 0.00 | 0.33 | 0.00 | 94 | 1007.8 |
| 20260507042551 | 49 | 278 | 1.7 | 8.7 | 0.00 | 0.33 | 0.00 | 94 | 1007.7 |
| 20260507042050 | 50 | 291 | 1.7 | 11.3 | 0.00 | 0.33 | 0.00 | 94 | 1007.6 |
| 20260507041553 | 50 | 310 | 2.6 | 11.3 | 0.00 | 0.33 | 0.00 | 95 | 1008.0 |
| 20260507041050 | 50 | 0 | 1.7 | 7.8 | 0.00 | 0.33 | 0.00 | 95 | 1007.9 |
| 20260507040552 | 50 | 276 | 2.6 | 7.8 | 0.00 | 0.33 | 0.00 | 95 | 1007.7 |
| 20260507040054 | 50 | 252 | 0.9 | 13.0 | 0.00 | 0.33 | 0.00 | 95 | 1007.8 |
| 20260507035550 | 50 | 0 | 5.2 | 13.0 | 0.00 | 0.33 | 0.33 | 95 | 1007.9 |
| 20260507035050 | 51 | 278 | 5.2 | 12.2 | 0.00 | 0.33 | 0.33 | 95 | 1007.8 |
| 20260507034553 | 51 | 264 | 6.1 | 12.2 | 0.00 | 0.33 | 0.33 | 95 | 1007.8 |
| 20260507034049 | 51 | 230 | 2.6 | 9.6 | 0.00 | 0.33 | 0.33 | 95 | 1007.7 |
| 20260507033550 | 51 | 239 | 5.2 | 9.6 | 0.00 | 0.33 | 0.33 | 95 | 1007.6 |
| 20260507033054 | 51 | 238 | 3.5 | 12.2 | 0.01 | 0.33 | 0.33 | 95 | 1007.6 |
| 20260507032550 | 51 | 306 | 3.5 | 12.2 | 0.01 | 0.33 | 0.33 | 94 | 1007.4 |
| 20260507032050 | 52 | 270 | 3.5 | 13.9 | 0.01 | 0.33 | 0.33 | 94 | 1007.5 |
| 20260507031552 | 52 | 287 | 5.2 | 13.9 | 0.02 | 0.33 | 0.33 | 94 | 1007.4 |
| 20260507031054 | 52 | 244 | 6.1 | 13.9 | 0.02 | 0.33 | 0.33 | 94 | 1007.4 |
| 20260507030551 | 53 | 308 | 5.2 | 16.5 | 0.02 | 0.33 | 0.33 | 95 | 1007.4 |
| 20260507030055 | 53 | 297 | 4.3 | 16.5 | 0.02 | 0.33 | 0.33 | 95 | 1007.2 |
| 20260507025554 | 54 | 317 | 3.5 | 12.2 | 0.02 | 0.33 | 0.33 | 96 | 1007.1 |
| 20260507025052 | 54 | 316 | 4.3 | 12.2 | 0.02 | 0.33 | 0.33 | 96 | 1007.1 |
| 20260507024606 | 54 | 301 | 3.5 | 12.2 | 0.02 | 0.33 | 0.33 | 95 | 1007.0 |
| 20260507024050 | 54 | 311 | 4.3 | 14.8 | 0.02 | 0.33 | 0.33 | 95 | 1007.1 |
| 20260507023554 | 55 | 296 | 6.1 | 15.6 | 0.02 | 0.33 | 0.33 | 95 | 1007.2 |
| 20260507023054 | 55 | 317 | 6.1 | 15.6 | 0.01 | 0.32 | 0.32 | 96 | 1007.2 |
| 20260507022554 | 56 | 301 | 4.3 | 12.2 | 0.01 | 0.32 | 0.32 | 96 | 1007.4 |
| 20260507022050 | 56 | 197 | 5.2 | 12.2 | 0.01 | 0.32 | 0.32 | 96 | 1007.5 |
| 20260507021556 | 56 | 248 | 5.2 | 11.3 | 0.00 | 0.31 | 0.31 | 96 | 1007.3 |
| 20260507021050 | 56 | 232 | 5.2 | 11.3 | 0.00 | 0.31 | 0.31 | 96 | 1007.1 |
| 20260507020550 | 57 | 276 | 3.5 | 9.6 | 0.00 | 0.31 | 0.31 | 97 | 1007.2 |
| 20260507020107 | 57 | 239 | 3.5 | 13.0 | 0.00 | 0.31 | 0.31 | 97 | 1006.9 |
| 20260507015549 | 57 | 226 | 2.6 | 13.0 | 0.00 | 0.31 | 0.31 | 97 | 1006.8 |
| 20260507015049 | 57 | 293 | 5.2 | 13.0 | 0.00 | 0.31 | 0.31 | 97 | 1006.8 |
| 20260507014603 | 58 | 299 | 4.3 | 13.0 | 0.00 | 0.31 | 0.31 | 97 | 1006.6 |
| 20260507014050 | 58 | 253 | 6.1 | 13.0 | 0.00 | 0.31 | 0.31 | 97 | 1006.8 |
| 20260507013550 | 58 | 189 | 4.3 | 11.3 | 0.00 | 0.31 | 0.31 | 97 | 1006.9 |
| 20260507013053 | 58 | 238 | 4.3 | 11.3 | 0.00 | 0.31 | 0.31 | 97 | 1006.8 |
| 20260507012551 | 58 | 197 | 4.3 | 11.3 | 0.00 | 0.31 | 0.31 | 97 | 1006.6 |
| 20260507012050 | 58 | 259 | 6.1 | 11.3 | 0.00 | 0.31 | 0.31 | 97 | 1006.6 |
| 20260507011551 | 58 | 153 | 2.6 | 10.4 | 0.00 | 0.31 | 0.31 | 97 | 1006.5 |
| 20260507011050 | 58 | 231 | 3.5 | 10.4 | 0.00 | 0.31 | 0.31 | 97 | 1006.5 |
| 20260507010550 | 58 | 164 | 3.5 | 13.0 | 0.00 | 0.31 | 0.31 | 97 | 1006.5 |
| 20260507010053 | 58 | 275 | 5.2 | 13.0 | 0.01 | 0.31 | 0.31 | 97 | 1006.6 |
| 20260507005551 | 58 | 223 | 5.2 | 13.0 | 0.01 | 0.31 | 0.31 | 97 | 1006.6 |
| 20260507005049 | 58 | 278 | 3.5 | 7.8 | 0.01 | 0.31 | 0.31 | 97 | 1006.6 |
| 20260507004601 | 58 | 202 | 3.5 | 8.7 | 0.01 | 0.31 | 0.31 | 97 | 1006.6 |
| 20260507004051 | 58 | 180 | 2.6 | 11.3 | 0.01 | 0.31 | 0.31 | 97 | 1006.6 |
| 20260507003551 | 58 | 190 | 4.3 | 11.3 | 0.01 | 0.31 | 0.31 | 97 | 1006.5 |
| 20260507003055 | 58 | 197 | 4.3 | 11.3 | 0.01 | 0.31 | 0.31 | 97 | 1006.4 |
| 20260507002549 | 58 | 199 | 3.5 | 9.6 | 0.01 | 0.31 | 0.31 | 97 | 1006.3 |
| 20260507002050 | 58 | 216 | 3.5 | 9.6 | 0.01 | 0.31 | 0.31 | 97 | 1006.3 |
| 20260507001602 | 58 | 229 | 2.6 | 7.8 | 0.01 | 0.31 | 0.31 | 97 | 1006.3 |
| 20260507001049 | 58 | 218 | 3.5 | 8.7 | 0.01 | 0.31 | 0.31 | 97 | 1006.3 |
| 20260507000550 | 58 | 189 | 3.5 | 10.4 | 0.01 | 0.31 | 0.31 | 97 | 1006.1 |
| 20260507000054 | 58 | 209 | 2.6 | 10.4 | 0.00 | 0.30 | 0.30 | 97 | 1006.2 |
| 20260506235550 | 58 | 159 | 4.3 | 10.4 | 0.00 | 0.30 | 0.30 | 97 | 1006.2 |
| 20260506235051 | 58 | 180 | 4.3 | 10.4 | 0.00 | 0.30 | 0.30 | 97 | 1006.3 |
| 20260506234602 | 58 | 189 | 3.5 | 9.6 | 0.00 | 0.30 | 0.30 | 97 | 1006.3 |
| 20260506234050 | 58 | 202 | 4.3 | 9.6 | 0.00 | 0.30 | 0.30 | 97 | 1006.1 |
| 20260506233554 | 58 | 218 | 4.3 | 8.7 | 0.00 | 0.30 | 0.30 | 97 | 1006.1 |
| 20260506233059 | 58 | 229 | 3.5 | 12.2 | 0.01 | 0.30 | 0.30 | 97 | 1006.0 |
| 20260506232549 | 58 | 141 | 4.3 | 12.2 | 0.01 | 0.30 | 0.30 | 97 | 1006.0 |
| 20260506232048 | 58 | 210 | 7.0 | 12.2 | 0.02 | 0.30 | 0.30 | 97 | 1005.9 |
| 20260506231558 | 58 | 202 | 5.2 | 11.3 | 0.02 | 0.30 | 0.30 | 97 | 1005.9 |
| 20260506231051 | 58 | 195 | 4.3 | 10.4 | 0.02 | 0.30 | 0.30 | 97 | 1005.9 |
| 20260506230551 | 58 | 193 | 4.3 | 10.4 | 0.02 | 0.30 | 0.30 | 97 | 1006.0 |
| 20260506230059 | 58 | 165 | 4.3 | 8.7 | 0.02 | 0.30 | 0.30 | 97 | 1005.9 |
| 20260506225549 | 58 | 202 | 3.5 | 8.7 | 0.02 | 0.30 | 0.30 | 97 | 1006.0 |
| 20260506225050 | 58 | 204 | 4.3 | 14.8 | 0.02 | 0.30 | 0.30 | 97 | 1006.1 |
| 20260506224551 | 58 | 170 | 5.2 | 14.8 | 0.03 | 0.30 | 0.30 | 96 | 1006.0 |
| 20260506224049 | 58 | 165 | 3.5 | 11.3 | 0.03 | 0.30 | 0.30 | 96 | 1006.1 |
| 20260506223552 | 58 | 154 | 5.2 | 14.8 | 0.03 | 0.30 | 0.30 | 96 | 1006.2 |
| 20260506223056 | 58 | 189 | 4.3 | 14.8 | 0.03 | 0.29 | 0.29 | 96 | 1006.2 |
| 20260506222550 | 58 | 202 | 5.2 | 13.9 | 0.02 | 0.28 | 0.28 | 96 | 1006.2 |
| 20260506222050 | 58 | 222 | 5.2 | 13.0 | 0.02 | 0.28 | 0.28 | 96 | 1006.2 |
| 20260506221553 | 58 | 203 | 7.0 | 13.0 | 0.03 | 0.28 | 0.28 | 96 | 1006.1 |
| 20260506221049 | 58 | 172 | 5.2 | 12.2 | 0.03 | 0.28 | 0.28 | 96 | 1006.1 |
| 20260506220550 | 58 | 218 | 7.8 | 12.2 | 0.04 | 0.28 | 0.28 | 96 | 1006.2 |
| 20260506220056 | 58 | 189 | 5.2 | 12.2 | 0.05 | 0.28 | 0.28 | 96 | 1006.3 |
| 20260506215550 | 58 | 210 | 5.2 | 14.8 | 0.06 | 0.28 | 0.28 | 96 | 1006.3 |
| 20260506215049 | 58 | 209 | 5.2 | 14.8 | 0.06 | 0.28 | 0.28 | 96 | 1006.3 |
| 20260506214555 | 58 | 0 | 6.1 | 11.3 | 0.05 | 0.27 | 0.27 | 96 | 1006.2 |
| 20260506214050 | 58 | 180 | 6.1 | 11.3 | 0.06 | 0.27 | 0.27 | 96 | 1006.4 |
| 20260506213549 | 58 | 171 | 5.2 | 12.2 | 0.07 | 0.27 | 0.27 | 96 | 1006.4 |
| 20260506213104 | 58 | 166 | 6.1 | 15.6 | 0.07 | 0.26 | 0.26 | 96 | 1006.5 |
| 20260506212551 | 58 | 172 | 6.1 | 15.6 | 0.09 | 0.26 | 0.26 | 96 | 1006.5 |
| 20260506212051 | 58 | 189 | 6.1 | 13.9 | 0.11 | 0.26 | 0.26 | 96 | 1006.3 |
| 20260506211604 | 58 | 164 | 5.2 | 14.8 | 0.11 | 0.25 | 0.25 | 96 | 1006.3 |
| 20260506211050 | 58 | 189 | 5.2 | 14.8 | 0.11 | 0.25 | 0.25 | 96 | 1006.5 |
| 20260506210551 | 58 | 172 | 7.0 | 14.8 | 0.11 | 0.24 | 0.24 | 96 | 1006.5 |
| 20260506210055 | 58 | 172 | 6.1 | 13.0 | 0.11 | 0.23 | 0.23 | 96 | 1006.4 |
| 20260506205550 | 58 | 201 | 6.1 | 12.2 | 0.10 | 0.22 | 0.22 | 96 | 1006.5 |
| 20260506205050 | 58 | 180 | 5.2 | 12.2 | 0.11 | 0.22 | 0.22 | 96 | 1006.7 |
| 20260506204557 | 58 | 204 | 4.3 | 14.8 | 0.12 | 0.22 | 0.22 | 96 | 1006.6 |
| 20260506204049 | 58 | 171 | 6.1 | 14.8 | 0.12 | 0.21 | 0.21 | 96 | 1006.8 |
| 20260506203549 | 58 | 189 | 7.0 | 14.8 | 0.11 | 0.20 | 0.20 | 96 | 1006.7 |
| 20260506203053 | 58 | 189 | 7.8 | 13.0 | 0.11 | 0.19 | 0.19 | 96 | 1006.8 |
| 20260506202550 | 59 | 172 | 5.2 | 13.0 | 0.09 | 0.17 | 0.17 | 96 | 1006.9 |
| 20260506202054 | 59 | 191 | 3.5 | 13.0 | 0.07 | 0.15 | 0.15 | 96 | 1007.0 |
| 20260506201600 | 59 | 189 | 4.3 | 13.0 | 0.06 | 0.14 | 0.14 | 96 | 1007.0 |
| 20260506201049 | 59 | 266 | 3.5 | 13.0 | 0.06 | 0.14 | 0.14 | 96 | 1007.0 |
| 20260506200550 | 59 | 156 | 6.1 | 13.0 | 0.05 | 0.13 | 0.13 | 95 | 1007.1 |
| 20260506200058 | 59 | 162 | 7.0 | 12.2 | 0.05 | 0.12 | 0.12 | 95 | 1007.0 |
| 20260506195549 | 59 | 205 | 5.2 | 13.0 | 0.04 | 0.11 | 0.11 | 95 | 1007.0 |
| 20260506195050 | 59 | 193 | 5.2 | 13.0 | 0.04 | 0.11 | 0.11 | 95 | 1007.1 |
| 20260506194604 | 59 | 180 | 3.5 | 10.4 | 0.03 | 0.10 | 0.10 | 95 | 1007.2 |
| 20260506194052 | 59 | 159 | 4.3 | 10.4 | 0.02 | 0.09 | 0.09 | 95 | 1007.4 |
| 20260506193552 | 59 | 194 | 4.3 | 13.9 | 0.02 | 0.09 | 0.09 | 95 | 1007.3 |
| 20260506193053 | 59 | 197 | 5.2 | 13.9 | 0.02 | 0.08 | 0.08 | 95 | 1007.3 |
| 20260506192551 | 60 | 189 | 7.8 | 13.9 | 0.02 | 0.08 | 0.08 | 94 | 1007.4 |
| 20260506192054 | 60 | 166 | 5.2 | 12.2 | 0.02 | 0.08 | 0.08 | 94 | 1007.3 |
| 20260506191553 | 60 | 206 | 6.1 | 11.3 | 0.02 | 0.08 | 0.08 | 94 | 1007.4 |
| 20260506191050 | 60 | 209 | 5.2 | 8.7 | 0.03 | 0.08 | 0.08 | 95 | 1007.4 |
| 20260506190550 | 60 | 170 | 4.3 | 13.0 | 0.03 | 0.08 | 0.08 | 94 | 1007.4 |
| 20260506190056 | 60 | 191 | 5.2 | 13.0 | 0.03 | 0.07 | 0.07 | 94 | 1007.5 |
| 20260506185549 | 60 | 220 | 3.5 | 13.0 | 0.03 | 0.07 | 0.07 | 94 | 1007.3 |
| 20260506185050 | 60 | 93 | 7.0 | 13.0 | 0.04 | 0.07 | 0.07 | 94 | 1007.1 |
| 20260506184605 | 60 | 222 | 3.5 | 11.3 | 0.04 | 0.07 | 0.07 | 94 | 1007.2 |
| 20260506184050 | 60 | 204 | 4.3 | 11.3 | 0.05 | 0.07 | 0.07 | 94 | 1007.3 |
| 20260506183550 | 60 | 172 | 3.5 | 12.2 | 0.06 | 0.07 | 0.07 | 94 | 1007.6 |
| 20260506183100 | 60 | 189 | 2.6 | 12.2 | 0.05 | 0.06 | 0.06 | 93 | 1007.6 |
| 20260506182549 | 60 | 180 | 6.1 | 12.2 | 0.06 | 0.06 | 0.06 | 93 | 1007.7 |
| 20260506182052 | 60 | 194 | 5.2 | 11.3 | 0.06 | 0.06 | 0.06 | 92 | 1007.8 |
| 20260506181551 | 60 | 189 | 4.3 | 10.4 | 0.06 | 0.06 | 0.06 | 92 | 1007.9 |
| 20260506181051 | 60 | 172 | 4.3 | 10.4 | 0.05 | 0.05 | 0.05 | 92 | 1008.0 |
| 20260506180550 | 60 | 166 | 3.5 | 8.7 | 0.05 | 0.05 | 0.05 | 92 | 1008.1 |
| 20260506180055 | 61 | 189 | 2.6 | 7.8 | 0.04 | 0.04 | 0.04 | 91 | 1008.2 |
| 20260506175551 | 61 | 191 | 3.5 | 7.8 | 0.04 | 0.04 | 0.04 | 90 | 1008.5 |
| 20260506175049 | 61 | 170 | 4.3 | 14.8 | 0.03 | 0.03 | 0.03 | 90 | 1008.6 |
| 20260506174551 | 61 | 233 | 3.5 | 14.8 | 0.03 | 0.03 | 0.03 | 88 | 1008.5 |
| 20260506174053 | 62 | 189 | 3.5 | 10.4 | 0.02 | 0.02 | 0.02 | 86 | 1008.8 |
| 20260506173550 | 62 | 169 | 3.5 | 13.0 | 0.01 | 0.01 | 0.01 | 85 | 1008.7 |
| 20260506173054 | 63 | 194 | 3.5 | 15.6 | 0.01 | 0.01 | 0.01 | 82 | 1008.8 |
| 20260506172553 | 64 | 228 | 4.3 | 15.6 | 0.00 | 0.00 | 0.00 | 80 | 1008.7 |
| 20260506172050 | 65 | 232 | 5.2 | 13.9 | 0.00 | 0.00 | 0.00 | 76 | 1008.6 |
| 20260506171558 | 65 | 131 | 5.2 | 16.5 | 0.00 | 0.00 | 0.00 | 75 | 1008.6 |
| 20260506171053 | 66 | 199 | 7.0 | 16.5 | 0.00 | 0.00 | 0.00 | 74 | 1008.5 |
| 20260506170549 | 66 | 166 | 7.8 | 15.6 | 0.00 | 0.00 | 0.00 | 72 | 1008.5 |
| 20260506170112 | 67 | 205 | 4.3 | 13.0 | 0.00 | 0.00 | 0.00 | 70 | 1008.6 |
| 20260506165553 | 67 | 161 | 5.2 | 20.9 | 0.00 | 0.00 | 0.00 | 71 | 1008.6 |
| 20260506165051 | 67 | 213 | 7.8 | 20.9 | 0.00 | 0.00 | 0.00 | 71 | 1008.6 |
| 20260506164556 | 67 | 213 | 9.6 | 20.9 | 0.00 | 0.00 | 0.00 | 71 | 1008.7 |
| 20260506164049 | 66 | 194 | 7.0 | 18.2 | 0.00 | 0.00 | 0.00 | 72 | 1008.7 |
| 20260506163553 | 66 | 166 | 7.0 | 16.5 | 0.00 | 0.00 | 0.00 | 72 | 1008.7 |
| 20260506163110 | 66 | 223 | 5.2 | 16.5 | 0.00 | 0.00 | 0.00 | 72 | 1008.9 |
| 20260506162550 | 66 | 224 | 6.1 | 16.5 | 0.00 | 0.00 | 0.00 | 71 | 1008.8 |
| 20260506162050 | 66 | 190 | 5.2 | 11.3 | 0.00 | 0.00 | 0.00 | 72 | 1008.9 |
| 20260506161601 | 66 | 161 | 3.5 | 13.9 | 0.00 | 0.00 | 0.00 | 74 | 1009.0 |
| 20260506161049 | 66 | 212 | 7.0 | 13.9 | 0.00 | 0.00 | 0.00 | 72 | 1009.1 |
| 20260506160550 | 66 | 172 | 6.1 | 17.4 | 0.00 | 0.00 | 0.00 | 72 | 1009.1 |
| 20260506160109 | 66 | 189 | 4.3 | 17.4 | 0.00 | 0.00 | 0.00 | 72 | 1009.1 |
| 20260506155549 | 67 | 199 | 5.2 | 12.2 | 0.00 | 0.00 | 0.00 | 71 | 1009.3 |
| 20260506155053 | 67 | 280 | 2.6 | 11.3 | 0.00 | 0.00 | 0.00 | 72 | 1009.2 |
| 20260506154604 | 67 | 196 | 3.5 | 11.3 | 0.00 | 0.00 | 0.00 | 70 | 1009.3 |
| 20260506154051 | 67 | 217 | 5.2 | 13.0 | 0.00 | 0.00 | 0.00 | 70 | 1009.6 |
| 20260506153550 | 67 | 170 | 3.5 | 13.0 | 0.00 | 0.00 | 0.00 | 72 | 1009.4 |
| 20260506153105 | 67 | 213 | 5.2 | 13.0 | 0.00 | 0.00 | 0.00 | 72 | 1009.4 |
| 20260506152613 | 67 | 197 | 4.3 | 10.4 | 0.00 | 0.00 | 0.00 | 71 | 1009.6 |
| 20260506152050 | 67 | 191 | 3.5 | 12.2 | 0.00 | 0.00 | 0.00 | 72 | 1009.4 |
| 20260506151555 | 67 | 229 | 5.2 | 13.9 | 0.00 | 0.00 | 0.00 | 72 | 1009.6 |
| 20260506151053 | 67 | 164 | 5.2 | 13.9 | 0.00 | 0.00 | 0.00 | 72 | 1009.8 |
| 20260506150550 | 67 | 160 | 5.2 | 13.9 | 0.00 | 0.00 | 0.00 | 71 | 1009.7 |
| 20260506150053 | 67 | 216 | 5.2 | 13.9 | 0.00 | 0.00 | 0.00 | 72 | 1009.7 |
| 20260506145550 | 67 | 150 | 6.1 | 13.9 | 0.00 | 0.00 | 0.00 | 71 | 1009.9 |
| 20260506145054 | 68 | 166 | 7.8 | 13.9 | 0.00 | 0.00 | 0.00 | 71 | 1009.8 |
| 20260506144602 | 68 | 228 | 7.0 | 14.8 | 0.00 | 0.00 | 0.00 | 71 | 1009.5 |
| 20260506144049 | 68 | 209 | 3.5 | 14.8 | 0.00 | 0.00 | 0.00 | 73 | 1009.5 |
| 20260506143550 | 68 | 218 | 7.8 | 14.8 | 0.00 | 0.00 | 0.00 | 70 | 1009.5 |
| 20260506143103 | 67 | 220 | 6.1 | 11.3 | 0.00 | 0.00 | 0.00 | 72 | 1009.7 |
| 20260506142549 | 67 | 222 | 5.2 | 13.0 | 0.00 | 0.00 | 0.00 | 71 | 1009.7 |
| 20260506142052 | 67 | 210 | 4.3 | 13.0 | 0.00 | 0.00 | 0.00 | 73 | 1009.7 |
| 20260506141554 | 67 | 197 | 4.3 | 16.5 | 0.00 | 0.00 | 0.00 | 74 | 1009.8 |
| 20260506141051 | 66 | 172 | 4.3 | 16.5 | 0.00 | 0.00 | 0.00 | 74 | 1009.5 |
| 20260506140551 | 66 | 217 | 6.1 | 15.6 | 0.00 | 0.00 | 0.00 | 75 | 1009.6 |
| 20260506140054 | 66 | 180 | 7.0 | 15.6 | 0.00 | 0.00 | 0.00 | 75 | 1009.6 |
| 20260506135550 | 65 | 206 | 7.0 | 14.8 | 0.00 | 0.00 | 0.00 | 76 | 1009.4 |
| 20260506135049 | 65 | 149 | 7.0 | 14.8 | 0.00 | 0.00 | 0.00 | 76 | 1009.3 |
| 20260506134556 | 65 | 180 | 4.3 | 12.2 | 0.00 | 0.00 | 0.00 | 78 | 1009.3 |
| 20260506134050 | 64 | 170 | 7.0 | 12.2 | 0.00 | 0.00 | 0.00 | 78 | 1009.5 |
| 20260506133550 | 64 | 217 | 6.1 | 11.3 | 0.00 | 0.00 | 0.00 | 79 | 1009.6 |
| 20260506133054 | 64 | 208 | 4.3 | 11.3 | 0.00 | 0.00 | 0.00 | 78 | 1009.6 |
| 20260506132549 | 64 | 189 | 6.1 | 10.4 | 0.00 | 0.00 | 0.00 | 79 | 1009.8 |
| 20260506132052 | 63 | 166 | 4.3 | 11.3 | 0.00 | 0.00 | 0.00 | 80 | 1009.8 |
| 20260506131552 | 63 | 189 | 4.3 | 12.2 | 0.00 | 0.00 | 0.00 | 79 | 1009.8 |
| 20260506131050 | 63 | 189 | 3.5 | 12.2 | 0.00 | 0.00 | 0.00 | 79 | 1009.9 |
| 20260506130550 | 64 | 202 | 5.2 | 11.3 | 0.00 | 0.00 | 0.00 | 79 | 1009.9 |
| 20260506130059 | 64 | 172 | 4.3 | 11.3 | 0.00 | 0.00 | 0.00 | 79 | 1009.9 |
| 20260506125552 | 64 | 210 | 4.3 | 11.3 | 0.00 | 0.00 | 0.00 | 79 | 1010.0 |
| 20260506125049 | 63 | 256 | 3.5 | 13.0 | 0.00 | 0.00 | 0.00 | 79 | 1010.0 |
| 20260506124552 | 63 | 224 | 6.1 | 14.8 | 0.00 | 0.00 | 0.00 | 79 | 1010.0 |
| 20260506124049 | 63 | 225 | 4.3 | 15.6 | 0.00 | 0.00 | 0.00 | 79 | 1010.0 |
| 20260506123549 | 63 | 209 | 7.0 | 15.6 | 0.00 | 0.00 | 0.00 | 80 | 1009.9 |
| 20260506123055 | 63 | 208 | 7.0 | 13.9 | 0.00 | 0.00 | 0.00 | 80 | 1010.1 |
| 20260506122549 | 63 | 221 | 6.1 | 13.9 | 0.00 | 0.00 | 0.00 | 80 | 1009.9 |
| 20260506122051 | 63 | 162 | 4.3 | 15.6 | 0.00 | 0.00 | 0.00 | 81 | 1009.8 |
| 20260506121557 | 63 | 234 | 7.0 | 15.6 | 0.00 | 0.00 | 0.00 | 81 | 1009.9 |
| 20260506121052 | 62 | 172 | 5.2 | 11.3 | 0.00 | 0.00 | 0.00 | 82 | 1009.8 |
| 20260506120552 | 62 | 210 | 5.2 | 14.8 | 0.00 | 0.00 | 0.00 | 83 | 1009.9 |
| 20260506120056 | 61 | 162 | 7.0 | 14.8 | 0.00 | 0.00 | 0.00 | 83 | 1009.9 |
| 20260506115552 | 61 | 195 | 5.2 | 18.2 | 0.00 | 0.00 | 0.00 | 83 | 1010.3 |
| 20260506115051 | 61 | 200 | 4.3 | 18.2 | 0.00 | 0.00 | 0.00 | 83 | 1010.2 |
| 20260506114557 | 61 | 251 | 7.8 | 18.2 | 0.00 | 0.00 | 0.00 | 83 | 1010.1 |
| 20260506114051 | 61 | 208 | 5.2 | 14.8 | 0.00 | 0.00 | 0.00 | 84 | 1010.1 |
| 20260506113551 | 60 | 166 | 5.2 | 17.4 | 0.00 | 0.00 | 0.00 | 84 | 1010.1 |
| 20260506113054 | 60 | 229 | 7.8 | 17.4 | 0.00 | 0.00 | 0.00 | 84 | 1010.3 |
| 20260506112554 | 60 | 212 | 4.3 | 13.0 | 0.00 | 0.00 | 0.00 | 84 | 1010.4 |
| 20260506112052 | 60 | 232 | 4.3 | 11.3 | 0.00 | 0.00 | 0.00 | 84 | 1010.3 |
| 20260506111554 | 60 | 170 | 4.3 | 11.3 | 0.00 | 0.00 | 0.00 | 84 | 1010.4 |
| 20260506111051 | 60 | 160 | 4.3 | 11.3 | 0.00 | 0.00 | 0.00 | 84 | 1010.4 |
| 20260506110555 | 60 | 199 | 6.1 | 12.2 | 0.00 | 0.00 | 0.00 | 84 | 1010.4 |
| 20260506110053 | 59 | 222 | 4.3 | 12.2 | 0.00 | 0.00 | 0.00 | 84 | 1010.4 |
| 20260506105552 | 59 | 244 | 7.0 | 12.2 | 0.00 | 0.00 | 0.00 | 84 | 1010.4 |
| 20260506105051 | 59 | 206 | 6.1 | 11.3 | 0.00 | 0.00 | 0.00 | 84 | 1010.2 |
| 20260506104553 | 59 | 0 | 3.5 | 11.3 | 0.00 | 0.00 | 0.00 | 85 | 1010.2 |
| 20260506104051 | 59 | 213 | 7.0 | 11.3 | 0.00 | 0.00 | 0.00 | 85 | 1010.3 |
| 20260506103551 | 58 | 208 | 2.6 | 13.0 | 0.00 | 0.00 | 0.00 | 85 | 1010.3 |
| 20260506103058 | 58 | 257 | 5.2 | 13.0 | 0.00 | 0.00 | 0.00 | 85 | 1010.3 |
| 20260506102552 | 58 | 198 | 4.3 | 13.0 | 0.00 | 0.00 | 0.00 | 85 | 1010.2 |
| 20260506102052 | 58 | 180 | 5.2 | 13.9 | 0.00 | 0.00 | 0.00 | 85 | 1010.2 |
| 20260506101554 | 58 | 180 | 4.3 | 13.9 | 0.00 | 0.00 | 0.00 | 85 | 1010.2 |
| 20260506101051 | 58 | 224 | 5.2 | 14.8 | 0.00 | 0.00 | 0.00 | 85 | 1010.2 |
| 20260506100551 | 58 | 209 | 6.1 | 14.8 | 0.00 | 0.00 | 0.00 | 84 | 1010.2 |
| 20260506100059 | 58 | 219 | 3.5 | 12.2 | 0.00 | 0.00 | 0.00 | 84 | 1010.1 |
| 20260506095551 | 58 | 201 | 6.1 | 12.2 | 0.00 | 0.00 | 0.00 | 84 | 1010.2 |
| 20260506095055 | 58 | 189 | 4.3 | 12.2 | 0.00 | 0.00 | 0.00 | 84 | 1010.2 |
| 20260506094601 | 58 | 199 | 3.5 | 13.9 | 0.00 | 0.00 | 0.00 | 84 | 1010.1 |
| 20260506094050 | 58 | 195 | 6.1 | 13.9 | 0.00 | 0.00 | 0.00 | 84 | 1010.2 |
| 20260506093552 | 58 | 269 | 3.5 | 14.8 | 0.00 | 0.00 | 0.00 | 83 | 1010.1 |
| 20260506093056 | 58 | 231 | 6.1 | 14.8 | 0.00 | 0.00 | 0.00 | 83 | 1010.1 |
| 20260506092552 | 58 | 225 | 4.3 | 11.3 | 0.00 | 0.00 | 0.00 | 83 | 1010.2 |
| 20260506092054 | 59 | 172 | 5.2 | 12.2 | 0.00 | 0.00 | 0.00 | 83 | 1010.0 |
| 20260506091559 | 59 | 180 | 6.1 | 13.0 | 0.00 | 0.00 | 0.00 | 83 | 1009.9 |
| 20260506091052 | 58 | 172 | 5.2 | 13.0 | 0.00 | 0.00 | 0.00 | 83 | 1009.9 |
| 20260506090551 | 58 | 189 | 5.2 | 13.9 | 0.00 | 0.00 | 0.00 | 83 | 1010.1 |
| 20260506090058 | 58 | 237 | 3.5 | 13.9 | 0.00 | 0.00 | 0.00 | 82 | 1010.1 |
| 20260506085551 | 58 | 210 | 4.3 | 15.6 | 0.00 | 0.00 | 0.00 | 82 | 1010.0 |
| 20260506085051 | 59 | 250 | 6.1 | 15.6 | 0.00 | 0.00 | 0.00 | 82 | 1010.0 |
| 20260506084612 | 58 | 228 | 4.3 | 10.4 | 0.00 | 0.00 | 0.00 | 82 | 1010.2 |
| 20260506084051 | 58 | 244 | 4.3 | 13.9 | 0.00 | 0.00 | 0.00 | 82 | 1010.1 |
| 20260506083551 | 59 | 239 | 5.2 | 13.9 | 0.00 | 0.00 | 0.00 | 81 | 1010.2 |
| 20260506083056 | 59 | 231 | 5.2 | 13.9 | 0.00 | 0.00 | 0.00 | 81 | 1010.1 |
| 20260506082551 | 59 | 172 | 5.2 | 11.3 | 0.00 | 0.00 | 0.00 | 80 | 1010.2 |
| 20260506082051 | 59 | 233 | 4.3 | 9.6 | 0.00 | 0.00 | 0.00 | 80 | 1010.3 |
| 20260506081556 | 59 | 189 | 3.5 | 10.4 | 0.00 | 0.00 | 0.00 | 79 | 1010.3 |
| 20260506081052 | 60 | 218 | 3.5 | 10.4 | 0.00 | 0.00 | 0.00 | 78 | 1010.2 |
| 20260506080552 | 60 | 244 | 4.3 | 10.4 | 0.00 | 0.00 | 0.00 | 78 | 1010.2 |
| 20260506073057 | 60 | 198 | 3.5 | 12.2 | 0.00 | 0.00 | 0.00 | 77 | 1010.2 |
| 20260506072551 | 60 | 287 | 3.5 | 8.7 | 0.00 | 0.00 | 0.00 | 76 | 1010.3 |
| 20260506072053 | 60 | 189 | 4.3 | 10.4 | 0.00 | 0.00 | 0.00 | 76 | 1010.2 |
| 20260506071556 | 60 | 172 | 3.5 | 10.4 | 0.00 | 0.00 | 0.00 | 76 | 1010.2 |
| 20260506071051 | 60 | 226 | 3.5 | 9.6 | 0.00 | 0.00 | 0.00 | 75 | 1010.1 |
| 20260506070551 | 60 | 247 | 3.5 | 9.6 | 0.00 | 0.00 | 0.00 | 75 | 1010.1 |